EHI
74 69 64 62 61 58 57 56 56 57 59 61 57 50 46 46 44 40 37 34 32 30 27 24 21 17 13 12 14 13 11 10 7 4 3 3 3 3 4 4 4 3 3
75 72 67 65 64 61 58 57 58 59 59 58 56 51 49 49 48 45 40 35 32 30 27 23 19 15 14 14 15 15 12 9 7 4 2 3 3 4 5 5 3 3 3
77 75 71 68 67 64 60 59 60 60 59 56 55 55 55 56 54 50 44 38 33 28 25 22 17 13 12 13 14 15 13 9 7 5 3 2 3 4 5 4 3 2 2
77 76 74 70 67 65 63 63 63 62 60 58 57 57 57 55 53 48 44 40 34 27 23 20 14 10 8 7 9 11 11 9 8 8 6 3 2 3 5 3 2 2 2
77 77 75 71 68 67 67 69 68 66 63 60 58 56 52 46 41 39 40 40 35 27 22 17 10 6 4 4 5 6 7 7 8 10 8 5 4 4 5 3 2 2 3
76 75 73 71 70 70 71 72 72 69 64 59 54 52 46 36 27 28 34 37 33 27 22 16 8 4 4 4 3 3 4 5 6 8 7 6 5 6 5 4 3 3 3
74 72 71 71 70 71 71 71 70 67 60 54 50 48 43 30 19 17 24 30 29 25 22 17 11 7 6 6 5 4 3 3 3 4 4 4 4 5 6 5 4 4 3
66 66 66 67 68 68 68 67 65 61 55 50 48 47 40 25 12 9 15 22 25 22 20 18 15 10 8 7 8 8 6 4 2 1 2 2 3 3 4 4 3 3 3
56 56 58 62 64 65 65 64 61 57 52 49 47 44 36 22 10 5 9 17 21 19 18 17 15 11 7 5 6 8 8 5 2 1 1 1 1 1 1 1 1 2 1
49 51 54 57 60 61 62 61 58 55 52 47 42 39 35 25 12 4 6 13 18 18 18 15 12 8 4 2 3 5 6 5 3 1 0 0 0 0 0 0 0 0 0
45 48 52 55 55 55 56 56 54 52 50 44 38 36 36 28 14 5 4 8 14 17 17 15 10 5 1 0 1 2 3 3 3 2 1 0 1 1 1 0 0 0 0
45 47 49 50 49 49 50 49 48 47 44 39 36 34 34 29 16 6 2 3 7 12 14 12 7 2 0 0 0 1 1 1 1 1 0 1 2 2 2 1 0 0 0
48 47 45 44 44 46 46 44 41 38 35 34 34 32 31 28 18 7 2 1 2 5 7 6 3 1 0 0 0 0 0 0 0 0 1 2 3 3 2 1 0 0 0
45 44 42 41 41 42 41 37 32 29 29 31 32 29 27 24 19 12 6 2 1 2 3 1 0 0 0 0 1 1 0 0 0 1 2 4 4 3 2 0 0 0 0
41 40 39 38 36 36 34 28 23 22 22 23 24 23 20 18 16 12 8 4 2 2 2 1 0 1 1 1 3 3 2 1 0 1 3 5 5 4 2 1 0 0 0
37 36 34 33 31 30 28 22 17 15 14 12 13 13 12 11 9 6 5 4 3 2 3 2 1 1 2 3 4 5 4 3 2 3 5 6 5 3 2 2 1 0 0
32 31 29 27 27 26 24 20 15 11 8 5 4 4 5 4 2 1 1 1 1 1 3 4 3 3 3 3 4 5 5 5 5 5 5 5 3 1 1 1 1 0 0
24 24 23 23 22 22 21 19 16 12 10 8 4 2 1 0 0 0 0 0 0 1 2 5 6 5 4 4 4 5 5 6 5 4 4 3 1 0 0 0 0 0 0
18 18 19 18 17 17 17 16 15 14 13 12 8 4 1 0 0 0 0 0 0 1 2 5 6 5 4 4 4 5 6 6 4 3 2 1 0 0 0 0 0 0 0
14 15 15 13 12 14 15 14 14 13 13 10 7 4 1 0 0 0 0 0 0 1 2 4 5 4 4 4 4 5 6 5 4 3 1 0 0 0 0 0 0 0 0
11 12 12 10 11 14 16 14 13 13 12 10 6 3 1 0 0 1 1 1 1 1 2 4 5 4 4 5 5 4 4 4 3 2 1 0 0 0 0 0 0 0 0
9 10 11 10 11 14 15 14 13 13 12 10 7 4 2 1 2 3 4 3 2 1 2 5 5 5 5 5 6 5 4 3 3 1 0 0 0 0 0 0 0 0 0
9 9 10 10 11 12 12 12 12 13 11 9 7 5 4 3 3 4 5 5 3 1 2 4 6 6 5 5 5 5 4 3 2 1 0 0 0 0 0 0 0 0 0
7 7 8 9 9 10 11 12 13 12 9 7 6 6 5 4 3 4 5 6 4 2 1 3 5 6 5 4 4 4 3 2 1 0 0 0 0 0 0 0 0 0 0
6 6 7 8 10 11 12 13 12 10 8 7 6 6 6 5 4 3 4 5 4 3 2 2 3 3 3 3 3 3 2 1 0 0 0 0 0 0 0 0 0 0 0
6 6 7 8 10 12 13 12 11 9 7 6 6 6 6 6 4 2 4 4 4 3 2 1 1 1 2 3 3 2 1 0 0 0 0 0 0 0 0 0 0 0 0
Wind_Speed
8 7 6 7 7 6 5 5 4 3 3 4 4 4 4 4 4 4 4 3 3 2 2 1 1 1 1 2 2 2 2 1 2 3 1 1 1 1 1 1 1 2 2
8 6 6 5 6 6 6 5 5 4 4 4 4 4 4 4 4 4 4 3 3 2 2 1 1 1 1 1 2 2 2 2 2 3 2 1 1 0 1 1 1 0 1
7 7 6 5 5 6 5 5 5 5 4 5 5 5 4 4 4 4 3 3 2 2 1 1 1 1 1 1 2 2 2 2 1 2 2 1 1 1 1 1 1 1 1
6 7 6 6 5 5 5 5 5 5 5 5 5 5 5 4 4 3 3 3 3 2 1 1 0 0 1 2 2 2 2 2 2 2 1 1 1 1 0 1 1 1 1
6 6 7 6 5 5 5 5 5 5 6 5 5 5 4 4 4 4 3 4 3 2 2 1 1 2 1 1 2 2 2 2 2 1 1 0 1 1 1 1 1 1 1
6 6 6 6 5 5 5 5 5 5 4 5 5 5 5 4 4 4 4 3 3 3 2 2 3 3 2 1 0 1 1 2 3 2 1 1 1 1 2 2 1 1 1
4 5 5 5 5 6 6 6 5 5 4 4 5 4 4 3 5 5 4 4 4 3 3 2 2 2 2 1 2 2 1 1 3 2 1 2 1 1 2 2 2 2 2
3 3 4 5 5 5 5 5 5 4 5 4 4 4 4 3 5 5 5 4 4 3 3 2 2 2 1 1 1 1 1 1 1 1 1 1 1 1 2 3 3 2 1
4 3 3 4 5 5 6 5 4 4 4 4 4 5 4 4 4 5 4 4 3 4 3 2 2 2 2 2 1 1 1 1 0 1 1 1 2 2 1 1 2 2 1
3 3 3 4 5 5 5 4 4 3 4 3 3 4 4 4 4 5 5 3 4 3 3 4 3 3 3 1 1 1 1 1 1 1 1 2 3 3 3 2 1 1 1
2 2 3 3 4 5 4 4 4 5 5 4 4 4 4 4 5 5 5 3 3 4 4 3 3 4 4 2 2 2 2 2 2 2 1 1 1 1 1 1 1 0 1
2 3 3 3 4 3 4 4 4 4 5 5 5 4 3 4 5 6 6 5 3 3 3 3 4 6 5 4 2 2 2 3 2 1 1 1 1 1 0 0 0 1 1
2 2 3 3 3 3 4 4 3 3 3 4 4 4 3 3 3 5 6 6 4 3 2 4 6 6 5 5 5 4 3 2 2 2 1 1 1 1 1 1 1 1 1
3 3 2 2 2 2 3 3 4 3 4 4 4 3 4 3 3 3 4 4 4 3 2 4 6 5 4 4 4 4 3 2 2 2 1 1 0 1 1 1 1 1 1
3 3 3 3 2 2 1 1 2 2 3 3 3 3 4 4 4 5 4 4 4 4 3 3 3 3 4 3 3 3 3 3 3 2 1 1 1 1 1 1 1 1 1
4 3 3 2 2 2 2 1 2 2 3 3 2 3 2 3 4 5 5 5 5 5 4 4 4 4 4 4 4 4 3 2 2 2 1 1 1 1 1 1 1 1 1
4 4 3 3 2 2 3 3 2 1 2 2 3 4 4 4 5 5 5 4 5 6 4 4 3 3 3 3 3 3 3 3 2 2 2 1 1 1 1 1 1 1 1
5 5 4 3 3 3 3 3 4 4 4 3 3 5 6 5 5 5 4 3 3 4 4 4 3 3 3 3 2 2 2 2 2 2 1 1 1 1 1 1 1 1 1
5 4 3 3 3 3 3 3 3 3 3 3 3 3 5 5 4 4 5 4 4 4 4 4 3 3 2 2 2 2 1 1 1 1 1 1 1 1 1 1 1 1 2
4 4 4 3 4 3 2 2 3 3 3 3 4 4 4 4 3 4 4 3 2 2 2 2 2 2 1 1 1 1 1 1 1 1 1 1 1 1 2 2 1 1 1
3 2 3 3 3 3 2 2 2 2 3 3 3 5 6 4 4 4 4 3 3 3 2 2 1 1 1 1 1 0 0 0 0 0 1 1 1 1 1 1 1 1 1
3 2 2 2 2 1 1 2 2 2 3 3 3 4 6 4 3 3 3 3 2 2 2 2 1 1 1 0 1 1 1 1 1 1 1 1 1 1 1 1 1 2 2
3 3 3 2 2 2 3 3 2 2 2 2 3 4 3 2 2 2 2 2 2 2 1 1 1 1 1 1 2 2 2 2 1 1 2 1 2 2 1 1 2 2 2
3 3 2 2 2 2 3 2 2 2 2 2 2 3 3 3 2 2 2 2 1 1 1 1 2 2 2 2 3 3 3 3 2 1 2 1 2 1 1 1 2 2 2
2 1 2 2 2 1 1 1 1 1 2 2 2 2 2 2 2 2 2 2 2 2 2 2 2 3 4 5 4 4 4 4 3 2 1 1 1 1 1 2 1 2 2
2 1 1 1 1 1 2 2 2 2 2 2 2 3 3 2 2 2 2 2 2 2 2 2 3 4 5 4 5 6 5 4 2 1 1 1 1 1 1 1 2 2 2
Wind_Direction
186 192 192 188 194 198 201 207 211 213 199 190 193 198 198 201 203 205 219 210 213 223 242 231 246 289 325 318 315 310 309 299 281 298 329 329 336 348 347 299 219 171 163
184 184 191 187 190 198 203 202 199 201 201 198 199 199 204 204 198 203 220 214 210 214 229 247 276 291 306 304 310 301 296 283 277 290 301 286 287 290 283 273 282 162 144
180 180 185 193 197 202 202 198 197 197 203 204 199 201 204 200 195 199 206 205 210 215 220 221 265 315 313 320 301 307 310 308 298 281 285 290 320 341 326 312 326 353 204
182 185 185 194 201 205 206 198 195 196 200 199 199 200 195 191 191 194 197 197 197 193 184 186 169 45 329 308 287 306 307 309 294 273 278 305 348 330 352 328 319 307 299
182 191 189 190 198 203 201 200 199 201 202 192 197 198 190 190 198 194 198 196 181 180 191 182 136 98 76 343 316 337 328 313 301 283 274 325 353 359 352 318 324 303 318
185 196 190 187 190 192 195 197 197 195 199 194 196 192 191 197 168 169 185 176 175 181 193 190 166 144 149 162 342 354 313 303 316 316 323 339 340 352 336 316 335 325 305
196 195 186 188 191 190 194 192 194 195 194 196 203 190 176 171 163 156 183 181 175 179 188 200 224 151 169 190 211 209 208 250 262 291 325 325 333 339 315 305 307 300 283
204 205 187 186 192 194 197 196 199 196 195 194 196 189 176 179 168 166 182 187 179 179 185 193 183 127 55 8 268 228 233 244 267 248 289 309 326 309 291 285 278 271 247
206 210 199 195 201 203 202 201 199 196 199 196 191 183 178 178 178 172 181 189 192 190 176 151 150 134 88 20 287 256 252 266 357 55 197 255 273 268 279 305 298 297 294
229 219 207 200 205 208 204 194 190 195 201 195 189 184 179 173 174 174 192 200 198 191 162 139 118 125 126 93 295 290 272 274 280 271 247 246 236 233 233 233 285 295 319
275 247 224 203 204 203 192 191 188 189 188 186 185 185 178 173 169 178 193 217 207 194 183 169 162 159 157 182 259 280 267 283 266 235 228 226 224 210 204 218 218 231 300
279 265 249 234 232 209 191 197 193 191 187 184 180 179 173 168 169 188 194 216 238 205 190 169 163 167 176 199 226 269 278 277 263 244 229 208 212 232 203 165 208 229 209
285 262 250 249 237 200 186 190 184 186 198 198 191 182 173 172 169 178 186 204 230 212 172 157 161 174 189 205 219 231 237 246 250 246 238 231 218 215 186 183 216 235 231
279 271 251 231 223 196 184 186 183 193 203 196 195 193 185 187 181 182 192 196 200 197 183 164 166 182 207 216 193 209 217 237 251 253 246 227 162 175 194 189 210 222 235
281 259 239 231 206 189 187 220 200 180 200 203 203 195 196 204 199 184 194 204 205 206 186 176 183 184 196 200 199 201 204 215 241 256 251 221 212 218 221 206 218 237 252
268 259 248 237 216 196 174 143 54 145 162 166 174 178 198 182 164 169 183 193 191 187 184 190 195 198 201 200 200 201 200 209 233 240 243 230 228 233 235 221 212 241 262
263 260 255 242 231 220 202 195 188 142 110 123 160 161 162 157 161 172 178 185 191 177 192 201 201 206 211 212 209 201 201 201 220 235 229 232 240 245 245 240 214 237 267
263 259 249 232 222 218 216 213 200 187 174 166 163 165 165 167 173 184 175 160 176 192 209 201 204 211 213 218 217 212 209 203 209 234 227 230 238 244 242 240 225 226 258
267 259 246 237 236 232 227 217 202 190 180 154 152 153 169 174 181 192 180 203 198 197 207 210 211 213 211 212 219 223 213 203 206 223 237 244 246 251 257 266 257 245 254
262 239 227 226 228 217 214 209 199 189 182 177 168 155 156 171 179 178 189 215 214 198 212 216 203 203 197 203 202 205 210 192 197 216 227 252 253 258 272 276 282 274 268
277 242 221 227 231 219 210 202 195 186 185 184 168 160 168 184 179 175 182 190 198 200 204 213 196 174 169 177 157 164 204 71 83 309 284 268 271 265 272 282 294 298 305
274 261 240 239 231 215 218 208 202 201 202 187 160 158 178 192 182 171 175 182 192 192 192 198 188 146 111 70 82 93 85 54 38 9 335 309 299 289 283 288 303 302 296
263 257 246 241 230 195 211 214 209 207 194 160 155 153 166 188 174 162 171 180 186 175 171 168 147 122 105 96 88 81 75 59 32 356 323 312 313 314 322 341 325 321 336
266 262 257 251 231 215 217 206 197 181 169 161 161 160 165 172 176 163 170 161 154 161 145 146 137 122 109 90 82 81 70 61 39 18 355 329 314 333 356 345 328 328 333
258 256 258 257 244 213 179 171 170 168 171 170 163 158 159 159 168 168 168 151 147 145 133 131 128 113 99 90 91 89 88 81 67 16 332 307 295 336 355 324 317 320 326
298 295 282 270 218 176 167 175 180 181 175 169 163 159 158 166 171 159 145 141 137 135 130 120 106 101 100 99 96 98 100 89 69 23 318 290 284 55 28 312 311 317 323